Weather History for K0A9 - February, 2013

Change the Weather History Date:

Tuesday, February 19, 2013

  Actual Average (KTRI) Record (KTRI)
Temperature  
Mean Temperature 39 °F 40 °F  
Max Temperature 46 °F 51 °F 78 °F (1939)
Min Temperature 32 °F 29 °F -5 °F (1958)
Degree Days  
Heating Degree Days 26 25  
Month to date heating degree days 514  
Since 1 July heating degree days 3168  
Cooling Degree Days 0 0  
Month to date cooling degree days 0  
Year to date cooling degree days 0  
Moisture  
Dew Point 26 °F    
Average Humidity 59    
Maximum Humidity 100    
Minimum Humidity 31    
Precipitation  
Precipitation 0.00 in 0.12 in 0.95 in (1999)
Month to date precipitation 2.37  
Year to date precipitation 5.74  
Snow  
Snow 0.00 in 0.10 in - ()
Month to date snowfall 2.4  
Since 1 July snowfall 9.8  
Snow Depth -    
Sea Level Pressure  
Sea Level Pressure 29.96 in    
Wind  
Wind Speed 8 mph (West)    
Max Wind Speed 20 mph    
Max Gust Speed 31 mph    
Visibility 10 miles    
Events Rain    
T = Trace of Precipitation, MM = Missing Value Source: NWS Daily Summary

Daily Weather History Graph

Daily Weather History Graph

Search for Another Location

Airport or City:

Trip Planner

Search our weather history database for the weather conditions in past years. The results will help you decide how hot, cold, wet, or windy it might be!

Date:

Astronomy

Feb. 19, 2013 Rise Set
Actual Time 7:11 AM EST 6:13 PM EST
Civil Twilight 6:45 AM EST 6:40 PM EST
Nautical Twilight 6:15 AM EST 7:10 PM EST
Astronomical Twilight 5:45 AM EST 7:40 PM EST
Moon 12:49 PM EST (2/19) 2:37 AM EST (2/19)
Length of Visible Light 11h 54m
Length of Day
11h 02m
Waxing Gibbous, 67% of the Moon is Illuminated
Feb 19
Waxing Gibbous
Feb 25
Full
Mar 4
Last Quarter
Mar 11
New
Mar 19
First Quarter

Hourly Weather History & Observations

Time (EST) Temp. Windchill Dew Point Humidity Pressure Visibility Wind Dir Wind Speed Gust Speed Precip Events Conditions
12:55 AM 42.8 °F 39.3 °F 21.2 °F 42% 30.02 in 10.0 mi ENE 5.8 mph - N/A   Clear
1:15 AM 39.2 °F - 23.0 °F 52% 30.01 in 10.0 mi Calm Calm - N/A   Clear
1:35 AM 39.2 °F 34.2 °F 21.2 °F 49% 29.99 in 10.0 mi ENE 6.9 mph - N/A   Clear
1:55 AM 42.8 °F 39.3 °F 21.2 °F 42% 29.97 in 10.0 mi East 5.8 mph - N/A   Clear
2:15 AM 41.0 °F 38.0 °F 21.2 °F 45% 29.97 in 10.0 mi ENE 4.6 mph - N/A   Partly Cloudy
2:35 AM 39.2 °F - 23.0 °F 52% 29.97 in 10.0 mi Calm Calm - N/A   Partly Cloudy
2:55 AM 42.8 °F 37.5 °F 21.2 °F 42% 29.97 in 10.0 mi ENE 9.2 mph - N/A   Mostly Cloudy
3:15 AM 42.8 °F 41.1 °F 21.2 °F 42% 29.98 in 10.0 mi NNE 3.5 mph - N/A   Overcast
3:35 AM 44.6 °F - 19.4 °F 37% 29.98 in 10.0 mi Calm Calm - N/A   Overcast
3:55 AM 44.6 °F 39.7 °F 17.6 °F 34% 30.00 in 10.0 mi SW 9.2 mph - N/A   Overcast
4:15 AM 44.6 °F 39.2 °F 19.4 °F 37% 29.99 in 10.0 mi WSW 10.4 mph - N/A   Overcast
4:35 AM 44.6 °F 38.1 °F 24.8 °F 46% 30.00 in 10.0 mi SW 13.8 mph - N/A   Light Drizzle
4:55 AM 42.8 °F 36.6 °F 28.4 °F 57% 30.00 in 10.0 mi West 11.5 mph - N/A   Light Drizzle
5:15 AM 39.2 °F 32.0 °F 30.2 °F 70% 29.99 in 9.0 mi WSW 11.5 mph - N/A Rain Light Rain
5:35 AM 39.2 °F 34.2 °F 32.0 °F 75% 30.01 in 5.0 mi WSW 6.9 mph - N/A Rain Rain
5:55 AM 37.4 °F 32.8 °F 33.8 °F 87% 29.99 in 6.0 mi SSW 5.8 mph - N/A Rain Light Rain
6:15 AM 37.4 °F 33.8 °F 33.8 °F 87% 29.98 in 10.0 mi East 4.6 mph - N/A   Mostly Cloudy
6:35 AM 37.4 °F 34.9 °F 33.8 °F 87% 29.96 in 10.0 mi SSE 3.5 mph - N/A   Light Drizzle
6:55 AM 37.4 °F 32.8 °F 33.8 °F 87% 29.95 in 10.0 mi NE 5.8 mph - N/A   Overcast
7:35 AM 37.4 °F 32.1 °F 33.8 °F 87% 29.92 in 10.0 mi ENE 6.9 mph - N/A   Light Drizzle
7:55 AM 39.2 °F 35.0 °F 33.8 °F 81% 29.92 in 10.0 mi NE 5.8 mph - N/A   Overcast
8:15 AM 39.2 °F 37.0 °F 35.6 °F 87% 29.91 in 10.0 mi NW 3.5 mph - N/A   Mostly Cloudy
8:35 AM 42.8 °F 38.6 °F 33.8 °F 70% 29.90 in 10.0 mi Variable 6.9 mph - N/A   Overcast
8:55 AM 42.8 °F - 35.6 °F 76% 29.90 in 10.0 mi Calm Calm - N/A   Overcast
9:15 AM 42.8 °F 41.1 °F 35.6 °F 76% 29.91 in 10.0 mi NW 3.5 mph - N/A Rain Light Rain
9:35 AM 42.8 °F 37.0 °F 35.6 °F 76% 29.92 in 10.0 mi WSW 10.4 mph - N/A Rain Light Rain
9:55 AM 42.8 °F 38.0 °F 35.6 °F 76% 29.93 in 10.0 mi West 8.1 mph - N/A Rain Light Rain
10:15 AM 41.0 °F 37.1 °F 37.4 °F 87% 29.93 in 7.0 mi West 5.8 mph - N/A Rain Light Rain
10:35 AM 41.0 °F 37.1 °F 37.4 °F 87% 29.93 in 5.0 mi West 5.8 mph - N/A Rain Light Rain
10:55 AM 41.0 °F 35.8 °F 39.2 °F 93% 29.94 in 4.0 mi WSW 8.1 mph - N/A Rain Light Rain
11:15 AM 39.2 °F 35.9 °F 39.2 °F 100% 29.94 in 7.0 mi West 4.6 mph - N/A Rain Light Rain
11:35 AM 39.2 °F 33.6 °F 37.4 °F 93% 29.93 in 10.0 mi WSW 8.1 mph - N/A   Overcast
11:55 AM 39.2 °F 33.6 °F 37.4 °F 93% 29.93 in 9.0 mi West 8.1 mph - N/A   Light Drizzle
12:15 PM 39.2 °F 32.5 °F 37.4 °F 93% 29.92 in 10.0 mi WSW 10.4 mph - N/A   Overcast
12:35 PM 41.0 °F 33.9 °F 37.4 °F 87% 29.92 in 10.0 mi West 12.7 mph - N/A   Overcast
12:55 PM 41.0 °F 35.2 °F 37.4 °F 87% 29.92 in 10.0 mi West 9.2 mph - N/A   Overcast
1:35 PM 42.8 °F 37.0 °F 37.4 °F 81% 29.91 in 10.0 mi West 10.4 mph - N/A   Overcast
1:55 PM 44.6 °F 37.4 °F 35.6 °F 71% 29.90 in 10.0 mi WSW 16.1 mph - N/A   Mostly Cloudy
2:15 PM 44.6 °F 36.6 °F 33.8 °F 66% 29.90 in 10.0 mi WSW 19.6 mph - N/A   Mostly Cloudy
2:35 PM 44.6 °F 36.9 °F 30.2 °F 57% 29.89 in 10.0 mi WSW 18.4 mph - N/A   Mostly Cloudy
2:55 PM 44.6 °F 36.6 °F 30.2 °F 57% 29.89 in 10.0 mi WSW 19.6 mph 31.1 mph N/A   Overcast
3:15 PM 46.4 °F 40.7 °F 28.4 °F 50% 29.89 in 10.0 mi WSW 12.7 mph - N/A   Mostly Cloudy
3:35 PM 46.4 °F 40.1 °F 28.4 °F 50% 29.89 in 10.0 mi WSW 15.0 mph - N/A   Mostly Cloudy
3:55 PM 44.6 °F 37.4 °F 26.6 °F 49% 29.90 in 10.0 mi West 16.1 mph - N/A   Overcast
4:15 PM 44.6 °F 38.8 °F 26.6 °F 49% 29.91 in 10.0 mi West 11.5 mph 26.5 mph N/A   Overcast
4:35 PM 44.6 °F 37.8 °F 26.6 °F 49% 29.91 in 10.0 mi West 15.0 mph - N/A   Overcast
4:55 PM 44.6 °F 38.1 °F 24.8 °F 46% 29.92 in 10.0 mi WSW 13.8 mph - N/A   Mostly Cloudy
5:15 PM 44.6 °F 38.4 °F 24.8 °F 46% 29.92 in 10.0 mi WSW 12.7 mph - N/A   Partly Cloudy
5:35 PM 44.6 °F 38.8 °F 23.0 °F 43% 29.92 in 10.0 mi West 11.5 mph - N/A   Scattered Clouds
5:55 PM 44.6 °F 37.2 °F 15.8 °F 31% 29.93 in 10.0 mi West 17.3 mph - N/A   Partly Cloudy
6:15 PM 42.8 °F 37.5 °F 17.6 °F 36% 29.95 in 10.0 mi West 9.2 mph - N/A   Clear
6:35 PM 42.8 °F 36.6 °F 17.6 °F 36% 29.96 in 10.0 mi West 11.5 mph - N/A   Clear
7:35 PM 39.2 °F 33.6 °F 15.8 °F 39% 29.99 in 10.0 mi West 8.1 mph - N/A   Clear
7:55 PM 39.2 °F 35.9 °F 15.8 °F 39% 30.00 in 10.0 mi Variable 4.6 mph - N/A   Clear
8:15 PM 37.4 °F 29.8 °F 15.8 °F 41% 30.00 in 10.0 mi West 11.5 mph - N/A   Clear
8:55 PM 37.4 °F 29.3 °F 10.4 °F 33% 30.02 in 10.0 mi WNW 12.7 mph - N/A   Clear
9:15 PM 35.6 °F 28.0 °F 10.4 °F 35% 30.03 in 10.0 mi WNW 10.4 mph - N/A   Clear
9:35 PM 35.6 °F 27.5 °F 12.2 °F 38% 30.04 in 10.0 mi West 11.5 mph - N/A   Clear
9:55 PM 35.6 °F 28.6 °F 12.2 °F 38% 30.04 in 10.0 mi West 9.2 mph - N/A   Clear
10:15 PM 33.8 °F 27.7 °F 14.0 °F 44% 30.05 in 10.0 mi West 6.9 mph - N/A   Clear
10:35 PM 33.8 °F 28.6 °F 15.8 °F 48% 30.05 in 10.0 mi West 5.8 mph - N/A   Clear
10:55 PM 33.8 °F 25.8 °F 15.8 °F 48% 30.06 in 10.0 mi West 10.4 mph - N/A   Clear
11:15 PM 33.8 °F 25.3 °F 12.2 °F 41% 30.06 in 10.0 mi WNW 11.5 mph - N/A   Clear
11:35 PM 32.0 °F 26.4 °F 12.2 °F 44% 30.06 in 10.0 mi WNW 5.8 mph - N/A   Clear
11:55 PM 33.8 °F 25.8 °F 12.2 °F 41% 30.07 in 10.0 mi West 10.4 mph - N/A   Clear